Torna al catalogo

COSMOS 1375 DEB

AttivoLEO
NORAD 17795·DEBRIS·🇷🇺 Russia

Lanciato Jun 6, 1982 da Plesetsk Cosmodrome

Loading…

Prossimi Passaggi (prossime 24 ore)

TLE

AggiornatoSource: Space-Track

Epoca: Sep 13, 2026, 21:50 UTC

1 17795U 82055AM  26256.91001707 -.00000098  00000-0 -27634-4 0  9990
2 17795  65.8346  46.7332 0064912 144.8065  23.1374 13.59879073 30283

Traccia COSMOS 1375 DEB in tempo reale con AllMySat

Download on the App Store